CDT,Max TemperatureF,Mean TemperatureF,Min TemperatureF,Max Dew PointF,MeanDew PointF,Min DewpointF,Max Humidity, Mean Humidity, Min Humidity, Max Sea Level PressureIn, Mean Sea Level PressureIn, Min Sea Level PressureIn, Max VisibilityMiles, Mean VisibilityMiles, Min VisibilityMiles, Max Wind SpeedMPH, Mean Wind SpeedMPH, Max Gust SpeedMPH,PrecipitationIn, CloudCover, Events, WindDirDegrees
2012-10-1,66,50,35,46,35,27,87,53,23,30.13,30.05,29.95,10,10,8,20,12,26,0.00,1,Rain,318
2012-10-2,77,56,35,41,32,27,76,46,19,29.95,29.76,29.65,10,9,3,34,13,46,0.00,0,,215
2012-10-3,48,42,37,46,39,34,100,89,71,30.05,29.93,29.80,10,10,3,31,11,39,0.07,5,Rain,6
2012-10-4,39,34,30,37,32,27,100,91,75,30.21,30.10,30.00,10,8,0,32,24,46,9.25,7,Rain-Snow,328
2012-10-5,37,32,26,32,29,25,100,91,70,30.30,30.23,30.18,10,9,1,28,17,33,0.32,5,Rain-Snow,321
2012-10-6,44,34,23,32,27,19,100,78,39,30.36,30.28,30.11,10,10,9,17,11,23,0.00,2,Rain,294
2012-10-7,55,40,26,32,27,25,93,68,33,30.10,29.88,29.71,10,10,10,16,10,22,0.00,2,,240
2012-10-8,51,42,33,45,37,32,100,83,57,29.71,29.59,29.49,10,10,6,30,11,38,0.00,6,Rain,252
2012-10-9,41,34,26,34,29,23,100,78,49,30.00,29.84,29.66,10,10,4,29,17,38,0.00,6,Rain,308
2012-10-10,44,34,23,36,31,23,100,91,49,30.00,29.94,29.85,10,10,8,17,8,23,0.00,3,Rain,268
2012-10-11,42,32,19,36,26,18,100,77,39,30.36,30.20,29.96,10,10,10,20,10,28,0.00,1,,331
2012-10-12,51,34,17,27,20,16,100,62,24,30.35,30.10,29.73,10,10,10,33,13,41,0.00,1,,172
2012-10-13,62,47,32,37,32,21,100,64,37,29.87,29.70,29.63,10,10,7,16,10,24,0.00,0,,311
2012-10-14,55,42,28,39,34,28,100,81,47,29.95,29.92,29.87,10,10,8,14,7,20,0.00,0,,329
2012-10-15,68,50,32,41,37,32,100,67,30,29.89,29.70,29.55,10,10,8,28,11,36,0.00,1,Rain,193
2012-10-16,68,54,39,46,44,37,100,71,37,29.55,29.43,29.24,10,10,5,13,8,17,0.00,0,,229
2012-10-17,55,48,41,50,45,41,100,99,77,29.25,29.18,29.15,10,6,3,34,17,44,0.69,7,Rain,286
2012-10-18,46,42,39,46,42,39,100,100,100,29.70,29.41,29.17,10,5,1,40,31,54,1.29,8,Rain,336
2012-10-19,41,39,37,41,39,37,100,100,93,29.79,29.75,29.71,10,9,1,30,20,40,0.00,8,,342
2012-10-20,55,46,37,48,43,37,100,94,72,29.70,29.63,29.56,10,10,2,24,11,26,0.00,4,,176
2012-10-21,48,44,39,48,42,37,100,93,71,30.05,29.84,29.63,10,9,4,25,9,31,0.00,2,Rain,332
2012-10-22,46,42,37,41,37,32,100,88,62,30.09,30.02,29.85,10,10,10,20,10,24,0.00,3,Rain,43
2012-10-23,50,46,41,50,46,41,100,100,100,29.85,29.71,29.61,10,5,0,20,12,28,0.17,7,Fog-Rain-Thunderstorm,142
2012-10-24,39,36,32,39,33,28,100,94,87,30.01,29.94,29.81,10,10,10,20,13,25,0.01,4,,307
2012-10-25,35,32,30,28,27,23,93,78,60,30.13,30.02,29.96,10,10,10,30,17,40,0.00,7,Rain,308
2012-10-26,35,30,26,28,21,16,100,67,44,30.27,30.23,30.14,10,10,10,28,19,38,0.00,6,Rain,290
2012-10-27,32,24,17,28,23,18,100,92,60,30.29,30.26,30.24,10,8,2,9,7,,0.53,6,Snow,340
2012-10-28,32,26,21,32,26,21,100,98,87,30.27,30.23,30.16,10,9,5,16,6,16,0.00,7,,93
2012-10-29,46,39,32,37,34,32,100,89,71,30.16,30.10,30.08,10,8,5,18,13,23,0.00,4,Rain,122
2012-10-30,42,38,33,37,35,30,100,90,75,30.11,30.07,30.02,10,9,2,21,13,29,0.00,6,Rain,143
2012-10-31,50,41,32,46,37,32,100,89,76,30.08,29.99,29.94,10,10,5,21,10,26,0.00,4,,236